Alabaster, AL

3:05 PM CDT on August 20, 2017 (GMT -0500)
Shelby County

Weather History for KEET - April, 2014

Change the Weather History Date:

Tuesday, April 8, 2014

  Actual Average Record
Temperature  
Mean Temperature 55 °F 61 °F  
Max Temperature 66 °F 73 °F 88 °F (1978)
Min Temperature 44 °F 49 °F 29 °F (1971)
Degree Days  
Heating Degree Days 10 6  
Month to date heating degree days 32 50  
Since 1 July heating degree days 2654 2488  
Cooling Degree Days 0 1  
Month to date cooling degree days 11 8  
Year to date cooling degree days 15 25  
Growing Degree Days 4 (Base 50)    
Moisture  
Dew Point 43 °F    
Average Humidity 65    
Maximum Humidity 93    
Minimum Humidity 37    
Precipitation  
Precipitation T in 0.13 in 4.20 in (1983)
Month to date precipitation 4.46 1.02  
Year to date precipitation 19.89 16.58  
Snow  
Snow 0.00 in - - ()
Month to date snowfall 0.0  
Since 1 July snowfall 1.3  
Snow Depth 0.00 in    
Sea Level Pressure  
Sea Level Pressure 29.84 in    
Wind  
Wind Speed 6 mph (NW)    
Max Wind Speed 15 mph    
Max Gust Speed 22 mph    
Visibility 9 miles    
Events Rain    
T = Trace of Precipitation, MM = Missing Value Source: NWS Daily Summary

Daily Weather History Graph

Daily Weather History Graph

Search for Another Location

Airport or City:

Trip Planner

Search our weather history database for the weather conditions in past years. The results will help you decide how hot, cold, wet, or windy it might be!

Date:

Astronomy

Apr. 08, 2014 Rise Set
Actual Time 6:25 AM CDT 7:12 PM CDT
Civil Twilight 6:00 AM CDT 7:37 PM CDT
Nautical Twilight 5:31 AM CDT 8:07 PM CDT
Astronomical Twilight 5:00 AM CDT 8:37 PM CDT
Moon 1:22 PM CDT (4/8) 2:20 AM CDT (4/8)
Length of Visible Light 13h 37m
Length of Day
12h 46m
Waxing Gibbous, 63% of the Moon is Illuminated
Apr 8
Waxing Gibbous
Apr 15
Full
Apr 22
Last Quarter
Apr 29
New
May 6
First Quarter

Hourly Weather History & Observations

Time (CDT) Temp. Windchill Dew Point Humidity Pressure Visibility Wind Dir Wind Speed Gust Speed Precip Events Conditions
12:44 AM 50.0 °F - 44.1 °F 80% 29.87 in 10.0 mi Variable 6.9 mph - N/A   Mostly Cloudy
12:53 AM 50.0 °F - 44.1 °F 80% 29.86 in 10.0 mi NW 5.8 mph - N/A   Mostly Cloudy
1:53 AM 48.9 °F - 44.1 °F 83% 29.85 in 10.0 mi Variable 5.8 mph - N/A   Mostly Cloudy
2:53 AM 48.0 °F - 44.1 °F 86% 29.84 in 10.0 mi West 3.5 mph - N/A   Clear
3:53 AM 46.0 °F 44.8 °F 43.0 °F 89% 29.83 in 8.0 mi NW 3.5 mph - N/A   Clear
4:53 AM 45.0 °F - 43.0 °F 93% 29.82 in 8.0 mi Calm Calm - N/A   Clear
5:53 AM 45.0 °F - 43.0 °F 93% 29.82 in 7.0 mi Calm Calm - N/A   Clear
6:53 AM 45.0 °F 41.8 °F 43.0 °F 93% 29.85 in 5.0 mi NW 5.8 mph - N/A   Clear
7:53 AM 46.9 °F - 44.1 °F 90% 29.87 in 8.0 mi Variable 5.8 mph - N/A   Clear
8:53 AM 50.0 °F - 43.0 °F 77% 29.87 in 10.0 mi Variable 3.5 mph - N/A   Clear
9:53 AM 54.0 °F - 42.1 °F 64% 29.88 in 10.0 mi North 3.5 mph - N/A   Clear
10:53 AM 57.9 °F - 41.0 °F 53% 29.88 in 10.0 mi Variable 5.8 mph - N/A   Clear
11:53 AM 62.1 °F - 42.1 °F 48% 29.85 in 10.0 mi Variable 6.9 mph - N/A   Clear
12:53 PM 63.0 °F - 41.0 °F 45% 29.81 in 10.0 mi NNW 8.1 mph - N/A   Partly Cloudy
1:53 PM 63.0 °F - 39.0 °F 41% 29.78 in 10.0 mi West 8.1 mph - N/A   Mostly Cloudy
3:53 PM 64.0 °F - 37.9 °F 38% 29.75 in 10.0 mi Calm Calm - N/A   Partly Cloudy
4:53 PM 63.0 °F - 39.0 °F 41% 29.77 in 10.0 mi Variable 4.6 mph - N/A   Overcast
5:53 PM 62.1 °F - 41.0 °F 46% 29.78 in 10.0 mi WNW 8.1 mph - N/A   Mostly Cloudy
6:53 PM 54.0 °F - 46.9 °F 77% 29.82 in 10.0 mi WNW 9.2 mph - N/A   Overcast
7:53 PM 53.1 °F - 48.9 °F 86% 29.85 in 10.0 mi NW 9.2 mph - 0.00 in Rain Light Rain
8:53 PM 52.0 °F - 48.0 °F 86% 29.87 in 10.0 mi NW 10.4 mph - 0.00 in   Overcast
9:53 PM 53.1 °F - 46.0 °F 77% 29.89 in 10.0 mi NW 10.4 mph - N/A   Overcast
10:53 PM 52.0 °F - 46.0 °F 80% 29.91 in 10.0 mi NW 11.5 mph - N/A   Overcast
11:53 PM 51.1 °F - 46.0 °F 83% 29.92 in 10.0 mi NW 6.9 mph - N/A   Overcast